Other Public Products
Issued by NWS Charleston, SC

Home | Current Version | Previous Version | Text Only | Print | Product List | Glossary On
Versions: 1 2 3 4 5 6 7 8 9 10 11 12 13 14 15 16 17 18 19 20 21 22 23 24 25 26 27 28 29 30 31 32 33 34 35 36 37 38 39 40 41 42 43 44 45 46 47 48 49 50
791
FPUS82 KCHS 082327
OPUCHS

TEST...KCHS/KSAV Gateway Observations...TEST
National Weather Service Charleston SC
600 PM EST THU DEC 08 2016

NOTE: "fair" indicates few or no clouds below 12,000 feet with no
significant weather and/or obstructions to visibility.

SCZ050-WAZ558-NCZ071-TXZ119-213-PAZ071-DCZ001-FLZ074-172-MI076-
NYZ176-178-MAZ016-IL014-TNZ027-NJZ106-GAZ044-MD014-090000-
...Gateway Observations for Charleston International...

CITY           SKY/WX    TMP DP  RH WIND       PRES   REMARKS
Chas Airport   MOCLDY    57  46  66 NW10      30.16R
Seattle        MOCLDY    36  12  37 NE10G20   29.94F WCI  28
Charlotte      CLOUDY    44  21  40 NW7       30.21R
Dallas DFW     MOCLDY    35  14  42 N15       30.60S WCI  25
Dallas Love    CLOUDY    37  15  40 N13       30.61F WCI  29
Philladelphia  MOCLDY    42  18  37 W16G22    30.01R
Wash National  PTCLDY    44  16  32 NW9       30.09R
Baltimore      PTCLDY    39  17  41 W12       30.06R WCI  32
Miami          CLOUDY    77  73  87 NE5       30.08R
Detroit        LGT SNOW  26  21  81 W16G23    30.20R WCI  14
Newark         PTCLDY    40  19  43 W12       29.94R WCI  33
Laguardia      MOCLDY    43  19  38 W16G25    29.93R
J F K          CLOUDY    42  19  39 W16       29.94R
Boston Logan   PTCLDY    40  28  62 W12       29.82R WCI  33
Ft. Lauderdale MOCLDY    77  73  87 NE7       30.06R
Chicago O`Hare CLOUDY    22  14  71 W15       30.35R WCI   9
Chicago Midway FLURRIES  23  13  65 W15G23    30.37R WCI  10
Houston Bush   CLOUDY    45  32  60 N18       30.45R
Houston Hobby  CLOUDY    47  33  58 N22G29    30.42R
Nashville      MOCLDY    34  14  43 N12       30.44R WCI  25
Atlanta        CLOUDY    42  20  41 NW13      30.31R

$$

GAZ044-118-TXZ119-213-NCZ071-DCZ001-MDZ014-506-PAZ021-071-NJZ106-
NYZ176-178-MAZ106-OHZ011-021-055-MIZ076-KYZ091-ILZ014-INZ047-
MNZ060-090000-
...Gateway Observations for Savannah International...

CITY           SKY/WX    TMP DP  RH WIND       PRES   REMARKS
Savannah Arpt  CLOUDY    58  40  51 NW8       30.18R
Atlanta        CLOUDY    42  20  41 NW13      30.31R
Charlotte      CLOUDY    44  21  40 NW7       30.21R
Dallas DFW     MOCLDY    35  14  42 N15       30.60S WCI  25
Houston Bush   CLOUDY    45  32  60 N18       30.45R
Wash National  PTCLDY    44  16  32 NW9       30.09R
Wash Dulles    PTCLDY    39  15  37 NW13      30.10R WCI  31
Baltimore      PTCLDY    39  17  41 W12       30.06R WCI  32
Philadelphia   MOCLDY    42  18  37 W16G22    30.01R
Newark         PTCLDY    40  19  43 W12       29.94R WCI  33
Laguardia      MOCLDY    43  19  38 W16G25    29.93R
J F K          CLOUDY    42  19  39 W16       29.94R
Boston         PTCLDY    40  28  62 W12       29.82R WCI  33
Pittsburg      FLURRIES  27  18  69 W14       30.16R WCI  16
Akron          FLURRIES  24  14  65 W14G26    30.19R WCI  12
Cleveland      FLURRIES  26  16  65 W17       30.22R WCI  13
Cincinnati     PTCLDY    24  14  65 NW15G22   30.37R WCI  11
Columbus       FLURRIES  24  16  69 W14G20    30.33R WCI  12
Detroit        LGT SNOW  26  21  81 W16G23    30.20R WCI  14
Chicago O`Hare CLOUDY    22  14  71 W15       30.35R WCI   9
Minneapolis    FLURRIES  21  11  65 NW14      30.46R WCI   8
Indianapolis   FLURRIES  22  13  68 W18       30.40R WCI   7

$$




USA.gov is the U.S. government's official web portal to all federal, state and local government web resources and services.